[[{"header":{"parameterUnit":"m.s-1","parameterCategory":1,"la1":30.2991,"la2":30.254,"lo1":-89.0895,"lo2":-89.0444,"dy":0.0017,"dx":0.0017,"nx":28,"ny":28,"refTime":"2025-07-03T09:00:00:Z","depth":0,"parameterNumber":2,"parameterNumberName":"U-component_of_WINDS"},"data":[0,0,0,0,0,0,0,0,0,0,0,0,0,0,0,0,0,0,0,0,0,0,0,0,0,0,0,0,0,0,0,0,0,0,0,0,0,0,0,0,0,0,0,0,0,0,0,0,0,0,0,0,0,0,0,0,0,0,0.2014,0.2014,0,0.2001,0.2,0.2,0.2012,0.2012,0.2013,0.2013,0.2001,0.2,0.1999,0,0,0,0,0,0,0,0,0,0,0,0,0,0.205,0.205,0.2014,0.2014,0.2013,0.2001,0.2,0.2,0.2012,0.2012,0.2013,0.2014,0.2001,0.2,0.1999,0,0,0,0,0,0,0,0,0,0,0,0,0,0.2036,0.2049,0.2014,0.2018,0.2018,0.2001,0.2,0.2,0.2012,0.2012,0.2013,0.2014,0.2001,0.2,0.1999,0.1977,0,0,0.1995,0.1995,0,0,0,0,0,0,0,0,0.2036,0.2034,0.2017,0.2017,0.2018,0.2009,0.2009,0.1992,0.2012,0.2014,0.2013,0.2014,0.2003,0.2001,0.1997,0.1977,0.1976,0.1995,0.1994,0.1994,0.1994,0,0,0,0,0,0,0,0.2037,0.2035,0.2009,0.2017,0.2017,0.202,0.2019,0.2006,0.2005,0.2014,0.2015,0.2013,0.2003,0.1999,0.1997,0.1976,0.1995,0.1994,0.1993,0.1993,0.1937,0.1936,0,0,0,0,0,0,0.2038,0.2036,0.2009,0.2008,0.2029,0.2019,0.2018,0.2011,0.2005,0.2004,0.2012,0.2014,0.2,0.1999,0.1997,0.1971,0.1994,0.1993,0.1992,0.1938,0.1937,0.1936,0,0,0,0,0,0,0.2039,0.2035,0.2009,0.2022,0.2019,0.2018,0.201,0.201,0.2006,0.2004,0.2004,0.2008,0.2001,0.1998,0.1982,0.197,0.1992,0.1991,0.1939,0.1937,0.1936,0.1918,0,0,0,0,0,0,0.204,0.2036,0.2027,0.2022,0.2018,0.1994,0.2009,0.2009,0.2003,0.2005,0.1999,0.1999,0.2001,0.1984,0.1981,0.1969,0.199,0.194,0.1938,0.1937,0.192,0.1917,0.1914,0,0,0,0,0,0.2041,0.2023,0.2026,0.2023,0.2007,0.1994,0.1992,0.1994,0.2003,0.1994,0.1993,0.1999,0.1973,0.1982,0.1979,0.1967,0.194,0.1938,0.1937,0.1921,0.1917,0.1914,0,0,0,0,0,0,0.2026,0.2022,0.2026,0.2006,0.2,0.1996,0.1985,0.199,0.1982,0.1983,0.1987,0.1986,0.1968,0.1966,0.1977,0.1945,0.1958,0.1955,0.1947,0.1943,0.194,0.1941,0.1989,0,0,0,0,0,0.2021,0.201,0.2007,0.1989,0.1986,0.1986,0.198,0.1982,0.1977,0.1974,0.1972,0.1966,0.1957,0.195,0.1941,0.192,0.1919,0.1911,0.1908,0.1905,0.1902,0.1891,0.1887,0.193,0.193,0.193,0,0,0.2009,0.2005,0.1998,0.1986,0.1982,0.197,0.1984,0.1971,0.1963,0.1973,0.1956,0.1955,0.1949,0.193,0.1921,0.1928,0.1891,0.1903,0.1901,0.19,0.1889,0.1885,0.1881,0.1929,0.1929,0.1929,0,0,0.1982,0.1978,0.1963,0.1958,0.1952,0.1952,0.1949,0.1944,0.1943,0.1927,0.1934,0.1924,0.1908,0.1903,0.1899,0.1871,0.1876,0.1868,0.1852,0.184,0.1837,0.1834,0.1823,0.1819,0.1866,0.1866,0.1866,0,0.1968,0.1951,0.1954,0.1941,0.1935,0.1944,0.1928,0.1924,0.1915,0.1911,0.1919,0.1898,0.1895,0.1875,0.1868,0.1864,0.186,0.1868,0.1837,0.1834,0.1831,0.1821,0.1817,0.1864,0.1865,0.1865,0.1865,0,0.1934,0.1922,0.191,0.1901,0.1894,0.188,0.1882,0.1875,0.1878,0.1878,0.1862,0.1858,0.1849,0.1844,0.1848,0.1825,0.1829,0.1837,0.1849,0.1826,0.1816,0.1813,0.1863,0.1863,0.1864,0.1864,0,0,0.1895,0.1889,0.1884,0.188,0.1874,0.1865,0.1852,0.1842,0.1836,0.183,0.1818,0.1805,0.1812,0.1807,0.181,0.18,0.1777,0.1809,0.1809,0.1802,0.1751,0.1744,0.174,0.1782,0.1781,0.1781,0.1751,0,0.1867,0.1842,0.1846,0.1823,0.1811,0.182,0.1808,0.1804,0.1803,0.1794,0.1795,0.1784,0.1795,0.1792,0.1783,0.1782,0.1767,0.1784,0.1771,0.177,0.177,0.1735,0.1728,0.17,0.1748,0.1747,0.1747,0,0.183,0.1822,0.1798,0.1794,0.1789,0.1778,0.177,0.1761,0.1756,0.1757,0.1752,0.1757,0.1743,0.1757,0.1739,0.1751,0.1746,0.1745,0.1744,0.1741,0.1756,0.173,0.1692,0.1687,0.1741,0.1742,0.1742,0,0.1803,0.1787,0.177,0.1766,0.1761,0.1754,0.1751,0.1747,0.1741,0.1734,0.1731,0.1722,0.1718,0.1711,0.1714,0.1724,0.1695,0.1709,0.1695,0.1695,0.1687,0.1687,0.1646,0.1686,0.1686,0.1686,0.1686,0,0.177,0.1754,0.1758,0.1747,0.173,0.1735,0.1718,0.1717,0.1713,0.1703,0.1711,0.1701,0.1706,0.1697,0.1699,0.1683,0.1682,0.1681,0.1682,0.168,0.168,0.1675,0.1677,0.1685,0.1686,0.1686,0.1686,0,0.1736,0.1738,0.172,0.1717,0.1716,0.1704,0.1701,0.1692,0.1692,0.1679,0.1677,0.1678,0.1667,0.167,0.1659,0.166,0.164,0.1644,0.1641,0.1642,0.1627,0.1628,0.158,0.1573,0.1619,0.1619,0.1619,0,0.1714,0.1703,0.1698,0.1692,0.1689,0.1678,0.1672,0.1677,0.167,0.1664,0.1655,0.1646,0.1638,0.1621,0.1621,0.1612,0.1615,0.1599,0.1614,0.1612,0.1613,0.1614,0.1612,0.1596,0.1595,0.1595,0.1594,0,0.1675,0.1677,0.1667,0.1659,0.1651,0.1645,0.1639,0.1633,0.1637,0.163,0.1619,0.1613,0.1602,0.1592,0.1584,0.1582,0.1589,0.159,0.1586,0.1583,0.1581,0.1581,0.1632,0.1591,0.1591,0.1591,0.1591,0.1592,0.1646,0.1635,0.1631,0.162,0.1617,0.1611,0.1602,0.1602,0.1593,0.1583,0.1587,0.1574,0.1571,0.1561,0.1558,0.1549,0.1555,0.1549,0.1548,0.1546,0.1543,0.1584,0.1547,0.1548,0.1548,0.1548,0.1548,0,0.1606,0.1603,0.1594,0.1585,0.1577,0.1585,0.1579,0.1571,0.156,0.1556,0.1548,0.1536,0.1527,0.1526,0.1518,0.151,0.1513,0.1508,0.1507,0.1507,0.1539,0.1543,0.1506,0.1506,0.1506,0.1506,0.1506,0.1506,0.1584,0.1566,0.1568,0.1549,0.1547,0.1534,0.153,0.1525,0.1522,0.1508,0.15,0.15,0.1497,0.1488,0.148,0.1481,0.1476,0.147,0.1471,0.15,0.1505,0.1509,0.1512,0.1469,0.1469,0.1439,0.1439,0.1439]},{"header":{"parameterUnit":"m.s-1","parameterCategory":1,"la1":30.2991,"la2":30.254,"lo1":-89.0895,"lo2":-89.0444,"dy":0.0017,"dx":0.0017,"nx":28,"ny":28,"refTime":"2025-07-03T09:00:00:Z","depth":0,"parameterNumber":3,"parameterNumberName":"V-component_of_WINDS"},"data":[0,0,0,0,0,0,0,0,0,0,0,0,0,0,0,0,0,0,0,0,0,0,0,0,0,0,0,0,0,0,0,0,0,0,0,0,0,0,0,0,0,0,0,0,0,0,0,0,0,0,0,0,0,0,0,0,0,0,-2.1535,-2.1536,0,-2.1578,-2.1579,-2.1579,-2.1577,-2.1576,-2.1576,-2.1575,-2.1617,-2.1619,-2.1621,0,0,0,0,0,0,0,0,0,0,0,0,0,-2.1451,-2.1453,-2.1535,-2.1536,-2.1536,-2.1578,-2.1579,-2.1579,-2.1577,-2.1576,-2.1576,-2.1575,-2.1617,-2.1619,-2.1621,0,0,0,0,0,0,0,0,0,0,0,0,0,-2.149,-2.1453,-2.1535,-2.154,-2.1541,-2.1578,-2.1579,-2.1579,-2.1577,-2.1576,-2.1575,-2.1575,-2.1616,-2.1619,-2.1621,-2.1655,0,0,-2.1629,-2.163,0,0,0,0,0,0,0,0,-2.1488,-2.1493,-2.1539,-2.154,-2.1541,-2.1571,-2.1564,-2.1605,-2.1577,-2.1564,-2.1575,-2.1574,-2.1603,-2.1606,-2.1616,-2.1657,-2.1659,-2.1629,-2.1631,-2.1632,-2.1632,0,0,0,0,0,0,0,-2.1485,-2.1491,-2.1552,-2.154,-2.1541,-2.154,-2.1545,-2.1572,-2.1588,-2.1565,-2.1565,-2.157,-2.1603,-2.1614,-2.1617,-2.1659,-2.1629,-2.1631,-2.1633,-2.1634,-2.1732,-2.1733,0,0,0,0,0,0,-2.1482,-2.1489,-2.1551,-2.1553,-2.1512,-2.1543,-2.1548,-2.1563,-2.1587,-2.159,-2.1571,-2.157,-2.161,-2.1614,-2.1619,-2.1662,-2.1632,-2.1634,-2.1635,-2.1731,-2.1732,-2.1734,0,0,0,0,0,0,-2.148,-2.1487,-2.1549,-2.1521,-2.1529,-2.1545,-2.1562,-2.1564,-2.1575,-2.1592,-2.1594,-2.1579,-2.1609,-2.1615,-2.1647,-2.1663,-2.1635,-2.1637,-2.173,-2.1731,-2.1733,-2.1747,0,0,0,0,0,0,-2.1477,-2.1486,-2.15,-2.1522,-2.1531,-2.1577,-2.1563,-2.1565,-2.1579,-2.1578,-2.16,-2.1603,-2.1609,-2.1643,-2.1649,-2.1666,-2.1639,-2.1728,-2.1731,-2.1732,-2.1745,-2.1749,-2.1752,0,0,0,0,0,-2.1474,-2.1501,-2.15,-2.1508,-2.1547,-2.1577,-2.1583,-2.159,-2.1581,-2.1594,-2.1605,-2.1602,-2.166,-2.1646,-2.1653,-2.1671,-2.1727,-2.173,-2.1732,-2.1744,-2.1748,-2.1752,0,0,0,0,0,0,-2.1479,-2.1504,-2.1503,-2.1538,-2.1556,-2.1577,-2.1594,-2.1594,-2.1614,-2.1613,-2.162,-2.1625,-2.1657,-2.1667,-2.1651,-2.1706,-2.1693,-2.1697,-2.1699,-2.1703,-2.1707,-2.1704,-2.1642,0,0,0,0,0,-2.1485,-2.1507,-2.1527,-2.1556,-2.1565,-2.1578,-2.1591,-2.1595,-2.1614,-2.1621,-2.1635,-2.1652,-2.1675,-2.1689,-2.1711,-2.1746,-2.1752,-2.1762,-2.1766,-2.1769,-2.1772,-2.1794,-2.18,-2.1742,-2.1742,-2.1742,0,0,-2.1495,-2.1512,-2.1525,-2.1557,-2.1572,-2.1595,-2.1584,-2.1609,-2.1627,-2.1625,-2.1656,-2.1667,-2.1687,-2.1721,-2.1737,-2.1731,-2.179,-2.1772,-2.1774,-2.1776,-2.1797,-2.1803,-2.1808,-2.1743,-2.1743,-2.1743,0,0,-2.1528,-2.1541,-2.1568,-2.1583,-2.1605,-2.1614,-2.1621,-2.1642,-2.165,-2.1681,-2.1681,-2.1702,-2.1739,-2.1755,-2.1767,-2.1807,-2.1806,-2.1813,-2.1832,-2.1853,-2.1858,-2.1862,-2.1878,-2.1884,-2.1817,-2.1817,-2.1817,0,-2.1538,-2.1574,-2.1581,-2.1608,-2.1622,-2.1622,-2.165,-2.1663,-2.1691,-2.1701,-2.1694,-2.1743,-2.1756,-2.1795,-2.1805,-2.1815,-2.1823,-2.1812,-2.1857,-2.1861,-2.1865,-2.188,-2.1886,-2.1818,-2.1818,-2.1818,-2.1818,0,-2.1587,-2.1612,-2.1631,-2.1659,-2.1676,-2.1702,-2.1714,-2.173,-2.1732,-2.1742,-2.1775,-2.1791,-2.1817,-2.1826,-2.1828,-2.1866,-2.1862,-2.1855,-2.1842,-2.1871,-2.1886,-2.1892,-2.1819,-2.1819,-2.1819,-2.1818,0,0,-2.1624,-2.1657,-2.1664,-2.1678,-2.1703,-2.1723,-2.1749,-2.1775,-2.179,-2.1809,-2.1832,-2.1865,-2.186,-2.1874,-2.1878,-2.1896,-2.1929,-2.1888,-2.1888,-2.1897,-2.1974,-2.198,-2.1986,-2.1928,-2.1929,-2.193,-2.1973,0,-2.166,-2.1709,-2.1717,-2.1759,-2.1783,-2.1784,-2.1808,-2.1826,-2.1836,-2.1857,-2.1868,-2.1892,-2.1882,-2.1891,-2.1909,-2.1921,-2.1945,-2.1918,-2.195,-2.1952,-2.1947,-2.1994,-2.2,-2.204,-2.1978,-2.1979,-2.198,0,-2.1709,-2.1732,-2.1777,-2.1801,-2.1811,-2.1832,-2.1858,-2.1878,-2.1899,-2.1905,-2.1922,-2.1924,-2.1952,-2.1937,-2.1977,-2.1958,-2.1972,-2.198,-2.1981,-2.1986,-2.1969,-2.2001,-2.2052,-2.2059,-2.1989,-2.1988,-2.1987,0,-2.1734,-2.1775,-2.1808,-2.182,-2.1848,-2.1863,-2.1875,-2.1895,-2.1911,-2.1933,-2.1943,-2.1968,-2.1982,-2.2,-2.2009,-2.1997,-2.2049,-2.2034,-2.2056,-2.2056,-2.2068,-2.2067,-2.2123,-2.2073,-2.2073,-2.2073,-2.2073,0,-2.1775,-2.1803,-2.182,-2.1841,-2.1873,-2.1881,-2.1913,-2.1924,-2.1943,-2.1966,-2.1967,-2.1988,-2.1998,-2.2021,-2.2028,-2.2061,-2.2066,-2.2072,-2.2074,-2.2074,-2.2073,-2.2084,-2.2082,-2.2075,-2.2074,-2.2074,-2.2074,0,-2.1808,-2.1821,-2.1857,-2.1881,-2.1888,-2.1911,-2.1932,-2.1952,-2.1962,-2.1991,-2.1998,-2.2014,-2.2041,-2.2052,-2.2085,-2.2089,-2.2128,-2.2127,-2.2122,-2.2123,-2.2145,-2.2143,-2.2211,-2.2221,-2.2163,-2.2163,-2.2164,0,-2.1834,-2.1857,-2.1884,-2.19,-2.1913,-2.1939,-2.1955,-2.1965,-2.1982,-2.2009,-2.2026,-2.2053,-2.2076,-2.212,-2.2134,-2.216,-2.216,-2.2182,-2.2164,-2.2163,-2.2163,-2.2162,-2.2165,-2.2186,-2.2186,-2.2187,-2.2187,0,-2.188,-2.1886,-2.191,-2.1937,-2.1958,-2.1979,-2.2,-2.2013,-2.2026,-2.2045,-2.2074,-2.2092,-2.2126,-2.2154,-2.2181,-2.2193,-2.2193,-2.2193,-2.22,-2.22,-2.2197,-2.2201,-2.2133,-2.2191,-2.2191,-2.2191,-2.219,-2.219,-2.1912,-2.1933,-2.1956,-2.1984,-2.2001,-2.2021,-2.2042,-2.2055,-2.2079,-2.2109,-2.2113,-2.2144,-2.2166,-2.2202,-2.2215,-2.224,-2.2234,-2.2243,-2.2246,-2.2249,-2.2251,-2.2192,-2.2244,-2.2244,-2.2244,-2.2244,-2.2244,0,-2.196,-2.1975,-2.2,-2.2031,-2.2053,-2.2051,-2.2075,-2.2093,-2.2121,-2.2141,-2.2164,-2.2198,-2.2226,-2.2242,-2.227,-2.2287,-2.2287,-2.2294,-2.2293,-2.2297,-2.2254,-2.2246,-2.2293,-2.2293,-2.2293,-2.2293,-2.2293,-2.2293,-2.1987,-2.2023,-2.2031,-2.2076,-2.209,-2.2122,-2.2136,-2.2155,-2.2171,-2.221,-2.2233,-2.2244,-2.2263,-2.2293,-2.2318,-2.2322,-2.2333,-2.234,-2.2344,-2.2304,-2.2299,-2.2295,-2.2288,-2.2342,-2.2342,-2.2385,-2.2386,-2.2386]}]]